User: anonymous   Login
Location: Unspecified
(0.0000°N, 0.0000°E)
Time: 23:24:37
(UTC+00:00)
Language:

NOSS 8 (E) - Orbit

View from above orbital plane
View from above orbital plane
View from above satellite
View from above satellite

Ground track
Ground track

The orbit is defined by the following mean orbital elements,

1 18009U          26140.51442515 +.00000000 +00000-0 +40437-3 0 00002
2 18009  63.2938  75.1435 0784989 104.7484 264.1827 13.86744569    02
Epoch (UTC): 20 May 2026 12:20:46
Eccentricity: 0.0784989
inclination: 63.2938°
perigee height: 366 km
apogee height: 1515 km
right ascension of ascending node: 75.1435°
argument of perigee: 104.7484°
revolutions per day: 13.86744569
mean anomaly at epoch: 264.1827°

The dashed part of the orbit path shows where the satellite is in the earth's shadow,  

DLR